Location: *
(46.4000°N, 12.6667°E)
Time: 23:37:53
(UTC+00:00)

Cosmos 1461 - Pass Details

Date: 09 April 2020
Orbit: 507 x 660 km, 65.0° (Epoch: 03 June)

Event Time Altitude Azimuth Distance (km) Brightness Sun altitude
Rises 18:56:52 0° 321° (NW) 2,891 7.8 -11.8°
Reaches altitude 10° 18:59:07 10° 319° (NW) 2,004 6.8 -12.2°
Maximum altitude 19:03:39 68° 237° (WSW) 692 3.4 -12.9°
Enters shadow 19:07:44 13° 156° (SSE) 1,838 5.0 -13.5°
